KB3UNV-1 Weather Reports


time (UTC)temp
C
wind
direction
speed
KPH
gust
KPH
rain 1hr
cm
rain 24hr
cm
rain mn
cm
humidity
%
barometer
mb
20260510045004 10 360 6.4 14.5 0.00 1.35 1.14 93 1005.6
20260510044504 10 360 8.0 12.9 0.00 1.35 1.14 93 1006.0
20260510044003 10 148 9.7 16.1 0.00 1.35 1.14 94 1006.0
20260510043505 10 360 9.7 16.1 0.00 1.35 1.14 94 1006.0
20260510043005 10 360 11.3 20.9 0.00 1.35 1.14 94 1005.9
20260510042505 10 360 11.3 20.9 0.00 1.35 1.14 94 1005.8
20260510042005 10 360 12.9 19.3 0.00 1.35 1.14 94 1005.8
20260510041508 10 360 12.9 17.7 0.00 1.35 1.14 94 1005.8
20260510041004 10 360 9.7 14.5 0.00 1.35 1.14 94 1005.5
20260510040504 10 360 8.0 12.9 0.00 1.35 1.14 94 1005.3
20260510040006 10 360 8.0 14.5 0.00 1.35 1.14 94 1005.4
20260510035503 10 360 9.7 14.5 0.00 1.35 1.14 94 1005.3
20260510035004 9 360 9.7 12.9 0.00 1.35 1.14 94 1005.1
20260510034504 9 360 8.0 11.3 0.00 1.35 1.14 94 1005.1
20260510034004 9 360 4.8 11.3 0.00 1.35 1.14 94 1005.1
20260510033502 9 360 6.4 11.3 0.00 1.35 1.14 94 1005.1
20260510033002 9 360 6.4 12.9 0.00 1.35 1.14 94 1005.2
20260510032505 9 360 8.0 12.9 0.00 1.40 1.14 93 1005.3
20260510032003 10 360 8.0 12.9 0.00 1.40 1.14 93 1005.3
20260510031509 10 152 6.4 14.5 0.00 1.40 1.14 93 1005.3
20260510031003 10 360 9.7 16.1 0.00 1.40 1.14 94 1005.4
20260510030504 10 360 8.0 16.1 0.00 1.40 1.14 93 1005.5
20260510030002 10 360 9.7 14.5 0.00 1.40 1.14 94 1005.5
20260510025502 10 360 8.0 11.3 0.00 1.40 1.14 93 1005.5
20260510025002 10 360 8.0 12.9 0.00 1.40 1.14 93 1005.5
20260510024502 10 142 8.0 12.9 0.00 1.40 1.14 93 1005.6
20260510024001 10 360 8.0 11.3 0.00 1.40 1.14 93 1005.7
20260510023501 10 360 8.0 11.3 0.00 1.40 1.14 93 1005.7
20260510023004 10 360 6.4 11.3 0.00 1.40 1.14 93 1005.6
20260510022501 10 148 8.0 11.3 0.00 1.52 1.14 93 1005.5
20260510022002 10 360 6.4 11.3 0.00 1.52 1.14 93 1005.5
20260510021505 10 360 6.4 9.7 0.00 1.52 1.14 93 1005.5
20260510021001 10 360 4.8 12.9 0.00 1.52 1.14 93 1005.5
20260510020501 10 360 8.0 12.9 0.00 1.52 1.14 93 1005.5
20260510020001 10 360 8.0 11.3 0.00 1.52 1.14 93 1005.5
20260510015502 10 360 6.4 12.9 0.00 1.52 1.14 93 1005.5
20260510015001 10 360 6.4 12.9 0.00 1.52 1.14 93 1005.4
20260510014503 10 360 8.0 14.5 0.00 1.52 1.14 93 1005.2
20260510014001 10 360 8.0 14.5 0.00 1.52 1.14 92 1005.1
20260510013503 10 360 8.0 14.5 0.00 1.52 1.14 92 1005.1
20260510013004 10 360 8.0 12.9 0.00 1.52 1.14 92 1005.2
20260510012503 10 360 9.7 14.5 0.03 1.52 1.14 92 1005.0
20260510012003 10 360 9.7 16.1 0.03 1.52 1.14 92 1005.0
20260510011503 10 360 11.3 16.1 0.03 1.52 1.14 92 1005.0
20260510011003 10 360 11.3 16.1 0.08 1.52 1.14 92 1005.0
20260510010502 10 360 11.3 17.7 0.15 1.52 1.14 92 1005.0
20260510010002 10 198 11.3 17.7 0.20 1.52 1.14 92 1004.9
20260510005503 10 205 11.3 17.7 0.25 1.52 1.14 92 1004.9
20260510005003 10 196 12.9 19.3 0.28 1.52 1.14 92 1004.8
20260510004503 10 360 11.3 19.3 0.30 1.52 1.14 92 1004.8
20260510004002 10 210 11.3 22.5 0.79 1.52 1.14 92 1004.7
20260510003504 10 196 12.9 22.5 0.91 1.52 1.14 92 1004.7
20260510003005 10 202 12.9 20.9 1.09 1.52 1.14 92 1004.7
20260510002503 10 360 11.3 20.9 1.12 1.52 1.14 92 1004.7
20260510002006 10 360 11.3 20.9 1.12 1.50 1.12 92 1004.7
20260510001503 10 360 9.7 20.9 1.12 1.50 1.12 92 1004.8
20260510001003 10 360 9.7 20.9 1.09 1.45 1.09 92 1005.2
20260510000503 10 216 4.8 22.5 1.04 1.42 1.04 92 1005.2
20260510000003 10 252 9.7 22.5 0.99 1.37 0.99 92 1005.7
20260509235505 10 259 8.0 27.4 0.91 1.30 0.91 92 1005.9
20260509235005 10 283 4.8 17.7 0.89 1.27 0.89 91 1005.9
20260509234503 10 313 4.8 27.4 0.86 1.24 0.86 91 1005.7
20260509234002 10 355 12.9 24.1 0.48 0.86 0.48 88 1005.1
20260509233058 11 333 11.3 40.2 0.13 0.51 0.13 86 1005.4
20260509232558 11 328 17.7 40.2 0.05 0.43 0.05 82 1004.4
20260509232057 13 12 16.1 33.8 0.03 0.41 0.03 74 1003.8
20260509231557 16 355 11.3 20.9 0.00 0.38 0.00 69 1003.7
20260509231057 16 200 9.7 19.3 0.00 0.38 0.00 67 1003.0
20260509230601 16 360 9.7 20.9 0.00 0.38 0.00 68 1002.8
20260509230057 16 200 12.9 20.9 0.00 0.38 0.00 68 1002.8
20260509225557 16 207 9.7 22.5 0.00 0.38 0.00 68 1002.5
20260509225056 16 207 11.3 22.5 0.00 0.38 0.00 67 1002.5
20260509224558 16 205 14.5 25.7 0.00 0.38 0.00 66 1002.4
20260509224057 16 212 17.7 25.7 0.00 0.38 0.00 66 1002.5
20260509223101 16 360 11.3 20.9 0.00 0.38 0.00 67 1002.4
20260509222600 16 360 12.9 25.7 0.00 0.38 0.00 67 1002.2
20260509222056 16 201 17.7 40.2 0.00 0.38 0.00 66 1002.1
20260509221556 16 210 22.5 40.2 0.00 0.38 0.00 66 1002.1
20260509221057 16 210 14.5 27.4 0.00 0.38 0.00 67 1002.0
20260509220556 16 360 14.5 27.4 0.00 0.38 0.00 66 1002.0
20260509220056 16 360 12.9 29.0 0.00 0.38 0.00 67 1002.0
20260509215556 16 360 17.7 35.4 0.00 0.38 0.00 65 1002.2
20260509215056 16 360 22.5 35.4 0.00 0.38 0.00 66 1002.2
20260509214619 16 219 14.5 32.2 0.00 0.38 0.00 67 1002.2
20260509214055 16 360 19.3 40.2 0.00 0.38 0.00 66 1002.1
20260509213056 17 360 24.1 35.4 0.00 0.38 0.00 65 1002.1
20260509212555 17 144 24.1 35.4 0.00 0.38 0.00 64 1002.0
20260509212058 17 360 17.7 32.2 0.00 0.38 0.00 65 1002.1
20260509211555 17 205 24.1 32.2 0.00 0.38 0.00 65 1002.0
20260509211054 17 360 20.9 35.4 0.00 0.38 0.00 65 1002.1
20260509210554 17 360 14.5 40.2 0.00 0.38 0.00 66 1002.3
20260509210058 17 360 27.4 40.2 0.00 0.38 0.00 66 1002.4
20260509205551 16 360 24.1 40.2 0.00 0.38 0.00 66 1002.4
20260509205050 16 196 22.5 41.8 0.00 0.38 0.00 65 1002.5
20260509204549 16 201 27.4 41.8 0.00 0.38 0.00 65 1002.6
20260509204049 16 195 19.3 33.8 0.00 0.38 0.00 67 1002.6
20260509203059 16 360 19.3 45.1 0.00 0.38 0.00 66 1002.9
20260509202548 16 208 24.1 45.1 0.00 0.38 0.00 65 1003.0
20260509202047 16 197 24.1 41.8 0.00 0.38 0.00 67 1003.1
20260509201546 16 360 24.1 41.8 0.00 0.38 0.00 68 1003.2
20260509201045 16 360 20.9 41.8 0.00 0.38 0.00 69 1003.2
20260509200544 16 360 22.5 41.8 0.00 0.38 0.00 69 1003.4
20260509200044 16 218 19.3 38.6 0.00 0.38 0.00 68 1003.2
20260509195543 16 211 22.5 43.5 0.00 0.38 0.00 68 1003.3
20260509195042 16 199 27.4 43.5 0.00 0.38 0.00 70 1003.5
20260509194547 15 360 24.1 37.0 0.00 0.38 0.00 70 1003.5
20260509194043 15 360 20.9 45.1 0.00 0.38 0.00 73 1003.6
20260509193042 15 360 29.0 45.1 0.00 0.38 0.00 71 1003.9
20260509192541 15 360 22.5 30.6 0.00 0.38 0.00 72 1003.7
20260509192044 16 208 16.1 30.6 0.00 0.38 0.00 70 1003.6
20260509191555 16 192 17.7 29.0 0.00 0.38 0.00 71 1003.7
20260509191040 15 215 16.1 27.4 0.00 0.38 0.00 73 1003.6
20260509190541 16 219 22.5 35.4 0.00 0.38 0.00 72 1003.8
20260509190046 15 223 22.5 35.4 0.00 0.38 0.00 70 1003.8
20260509185538 15 360 20.9 35.4 0.00 0.38 0.00 72 1003.8
20260509185038 15 360 17.7 29.0 0.00 0.38 0.00 72 1003.9
20260509184548 15 221 16.1 33.8 0.00 0.38 0.00 75 1003.9
20260509184037 15 360 12.9 24.1 0.00 0.38 0.00 75 1004.1
20260509183047 15 219 14.5 29.0 0.00 0.38 0.00 76 1004.1
20260509182537 15 215 19.3 29.0 0.00 0.38 0.00 75 1004.1
20260509182035 15 223 16.1 27.4 0.00 0.38 0.00 77 1004.1
20260509181534 15 360 16.1 33.8 0.00 0.38 0.00 77 1004.3
20260509181034 15 360 17.7 33.8 0.00 0.38 0.00 78 1004.2
20260509180533 14 231 14.5 24.1 0.00 0.38 0.00 79 1004.2
20260509180032 14 360 17.7 24.1 0.00 0.38 0.00 81 1004.1
20260509175529 13 252 9.7 22.5 0.00 0.38 0.00 84 1004.2
20260509175030 13 151 14.5 22.5 0.00 0.38 0.00 84 1004.3
20260509174528 13 210 11.3 22.5 0.00 0.38 0.00 84 1004.4
20260509174027 13 360 14.5 27.4 0.00 0.38 0.00 86 1004.4
20260509173028 13 360 14.5 27.4 0.00 0.38 0.00 85 1004.5
20260509172527 12 199 12.9 27.4 0.00 0.38 0.00 85 1004.6
20260509172026 12 207 16.1 27.4 0.00 0.38 0.00 87 1004.7
20260509171525 12 202 16.1 27.4 0.00 0.38 0.00 90 1004.8
20260509171023 12 223 12.9 27.4 0.00 0.38 0.00 90 1004.8
20260509170523 12 218 19.3 27.4 0.00 0.38 0.00 89 1004.8
20260509170023 12 209 16.1 22.5 0.00 0.38 0.00 90 1004.9
20260509165520 12 220 14.5 22.5 0.00 0.38 0.00 91 1005.0
20260509165018 11 199 12.9 27.4 0.00 0.38 0.00 91 1005.1
20260509164518 11 196 9.7 17.7 0.00 0.38 0.00 92 1005.1
20260509164017 11 221 11.3 19.3 0.00 0.38 0.00 92 1005.1
20260509163026 11 201 12.9 19.3 0.00 0.38 0.00 93 1005.1
20260509162513 11 360 9.7 17.7 0.00 0.38 0.00 93 1005.2
20260509162012 11 205 11.3 22.5 0.00 0.38 0.00 93 1005.1
20260509161514 11 218 11.3 19.3 0.00 0.38 0.00 94 1005.1
20260509161010 11 230 9.7 16.1 0.00 0.38 0.00 94 1005.1
20260509160509 10 220 12.9 16.1 0.00 0.38 0.00 94 1005.1
20260509160009 10 194 8.0 12.9 0.00 0.38 0.00 94 1005.1
20260509155508 10 230 6.4 11.3 0.00 0.38 0.00 94 1005.1
20260509155009 10 202 4.8 11.3 0.00 0.38 0.00 94 1005.1
20260509154508 10 208 6.4 12.9 0.00 0.38 0.00 94 1005.2
20260509154007 10 360 8.0 19.3 0.00 0.38 0.00 94 1005.2
20260509153009 10 208 6.4 14.5 0.00 0.38 0.00 95 1005.2
20260509152507 10 225 9.7 14.5 0.00 0.38 0.00 95 1005.2
20260509152007 10 360 6.4 14.5 0.00 0.38 0.00 95 1005.2
20260509151506 10 221 9.7 14.5 0.00 0.38 0.00 95 1005.2
20260509151005 10 224 9.7 16.1 0.00 0.38 0.00 95 1005.1
20260509150506 10 196 9.7 19.3 0.00 0.38 0.00 95 1005.1
20260509150003 10 214 11.3 22.5 0.00 0.38 0.00 95 1005.2
20260509145503 10 360 11.3 19.3 0.00 0.38 0.00 95 1005.2
20260509145002 10 360 11.3 19.3 0.00 0.38 0.00 95 1005.2
20260509144502 10 218 6.4 14.5 0.00 0.38 0.00 95 1005.3
20260509144001 10 224 9.7 17.7 0.00 0.38 0.00 95 1005.2
20260509143100 10 229 8.0 16.1 0.00 0.38 0.00 95 1005.2
20260509142602 9 360 11.3 17.7 0.00 0.38 0.00 95 1005.1
20260509142059 9 216 11.3 17.7 0.00 0.38 0.00 95 1005.1
20260509141559 9 360 9.7 19.3 0.00 0.38 0.00 95 1005.2
20260509141102 9 360 11.3 19.3 0.00 0.38 0.00 95 1005.1
20260509140558 9 199 8.0 19.3 0.00 0.38 0.00 95 1005.1
20260509135558 9 213 12.9 17.7 0.00 0.38 0.00 95 1005.1
20260509135058 9 182 8.0 17.7 0.00 0.38 0.00 95 1005.2
20260509134557 9 196 11.3 17.7 0.00 0.38 0.00 95 1005.2
20260509134057 9 360 9.7 17.7 0.00 0.38 0.00 95 1005.2
20260509133057 9 221 8.0 16.1 0.00 0.38 0.00 95 1005.2
20260509132558 9 209 9.7 19.3 0.00 0.38 0.00 95 1005.2
20260509132058 9 360 9.7 19.3 0.00 0.38 0.00 95 1005.2
20260509131559 9 205 12.9 24.1 0.00 0.38 0.00 95 1005.4
20260509131054 8 200 11.3 20.9 0.00 0.38 0.00 95 1005.3
20260509130558 8 360 9.7 20.9 0.00 0.38 0.00 95 1005.4
20260509130105 8 360 9.7 19.3 0.00 0.38 0.00 95 1005.4
20260509125553 8 196 11.3 19.3 0.00 0.38 0.00 95 1005.4
20260509125052 8 360 11.3 19.3 0.00 0.38 0.00 95 1005.5
20260509124555 8 360 9.7 17.7 0.00 0.38 0.00 95 1005.5
20260509124055 8 360 11.3 17.7 0.00 0.38 0.00 95 1005.6
20260509123052 8 360 9.7 16.1 0.00 0.38 0.00 95 1005.8
20260509122552 8 360 9.7 17.7 0.00 0.38 0.00 95 1005.8
20260509122049 8 141 8.0 17.7 0.00 0.38 0.00 95 1005.8
20260509121556 8 360 9.7 17.7 0.00 0.38 0.00 95 1005.8
20260509121049 8 360 11.3 16.1 0.00 0.38 0.00 95 1005.9
20260509120551 8 360 8.0 16.1 0.00 0.38 0.00 95 1005.9
20260509120046 8 360 9.7 16.1 0.00 0.38 0.00 95 1005.8
20260509115545 8 360 9.7 16.1 0.00 0.38 0.00 95 1005.9
20260509115045 8 360 9.7 17.7 0.00 0.38 0.00 95 1005.9
20260509114552 8 360 11.3 17.7 0.00 0.38 0.00 95 1005.9
20260509114042 8 360 8.0 17.7 0.00 0.38 0.00 95 1006.0
20260509113052 8 360 6.4 12.9 0.00 0.38 0.00 95 1006.0
20260509112541 8 360 8.0 14.5 0.00 0.38 0.38 95 1006.0
20260509112041 8 360 6.4 16.1 0.00 0.38 0.38 95 1005.9
20260509111541 8 360 8.0 14.5 0.00 0.38 0.38 95 1005.9
20260509111041 8 360 9.7 16.1 0.00 0.38 0.38 95 1005.9
20260509110541 8 360 6.4 14.5 0.00 0.38 0.38 95 1005.8
20260509110041 8 360 9.7 16.1 0.00 0.38 0.38 95 1005.9
20260509105542 8 360 8.0 17.7 0.00 0.38 0.38 95 1005.7
20260509105041 8 360 8.0 16.1 0.00 0.38 0.38 95 1005.7
20260509104540 8 360 8.0 12.9 0.00 0.38 0.38 95 1005.7
20260509104039 8 360 6.4 19.3 0.00 0.38 0.38 95 1005.8
20260509103054 8 148 6.4 11.3 0.03 0.38 0.38 95 1005.8
20260509102542 8 360 6.4 12.9 0.03 0.38 0.38 95 1005.8
20260509102042 8 360 8.0 12.9 0.03 0.38 0.38 95 1005.8
20260509101557 8 360 6.4 12.9 0.03 0.38 0.38 95 1005.9
20260509101041 8 360 6.4 12.9 0.03 0.38 0.38 95 1005.8
20260509100541 8 360 6.4 12.9 0.03 0.38 0.38 95 1005.9
20260509100041 8 360 6.4 14.5 0.03 0.38 0.38 95 1005.9
20260509095541 8 360 6.4 14.5 0.03 0.38 0.38 95 1006.0
20260509095040 8 360 4.8 12.9 0.03 0.38 0.38 95 1006.0
20260509094545 8 360 6.4 12.9 0.03 0.38 0.38 95 1006.0
20260509094041 8 146 8.0 16.1 0.03 0.38 0.38 95 1006.1
20260509093037 8 360 4.8 11.3 0.03 0.38 0.38 94 1006.1
20260509092536 8 360 4.8 14.5 0.00 0.36 0.36 94 1006.1
20260509092036 8 360 6.4 14.5 0.00 0.36 0.36 94 1006.2
20260509091537 8 360 6.4 9.7 0.00 0.36 0.36 94 1006.2
20260509091039 8 200 6.4 11.3 0.00 0.36 0.36 94 1006.2
20260509090540 8 205 6.4 12.9 0.00 0.36 0.36 94 1006.2
20260509090045 8 360 8.0 14.5 0.00 0.36 0.36 94 1006.2
20260509085536 8 360 8.0 14.5 0.00 0.36 0.36 94 1006.2
20260509085036 8 360 6.4 14.5 0.00 0.36 0.36 94 1006.2
20260509084538 8 360 8.0 14.5 0.00 0.36 0.36 94 1006.2
20260509084036 8 360 6.4 12.9 0.03 0.36 0.36 94 1006.3
20260509083050 8 360 8.0 12.9 0.03 0.36 0.36 94 1006.3
20260509082536 8 360 8.0 24.1 0.03 0.36 0.36 94 1006.2
20260509082036 8 360 12.9 24.1 0.03 0.36 0.36 94 1006.2
20260509081536 8 360 4.8 12.9 0.03 0.36 0.36 94 1006.2
20260509081036 8 196 9.7 14.5 0.03 0.36 0.36 94 1006.2
20260509080536 8 360 8.0 14.5 0.03 0.36 0.36 94 1006.2
20260509080039 8 360 9.7 14.5 0.03 0.36 0.36 94 1006.3
20260509075536 8 360 6.4 11.3 0.03 0.36 0.36 94 1006.3
20260509075035 8 196 8.0 12.9 0.03 0.36 0.36 94 1006.4
20260509074538 8 360 9.7 12.9 0.03 0.36 0.36 94 1006.4
20260509073037 8 360 6.4 12.9 0.00 0.33 0.33 94 1006.2
20260509072535 8 360 9.7 12.9 0.00 0.33 0.33 94 1006.2
20260509072032 8 360 6.4 12.9 0.03 0.33 0.33 94 1006.3
20260509071541 8 360 8.0 14.5 0.03 0.33 0.33 94 1006.3
20260509071032 8 360 8.0 14.5 0.05 0.33 0.33 94 1006.4
20260509070533 8 360 8.0 19.3 0.08 0.33 0.33 94 1006.5
20260509070031 8 360 12.9 19.3 0.10 0.33 0.33 94 1006.5
20260509065531 8 360 8.0 14.5 0.10 0.33 0.33 94 1006.6
20260509065031 8 360 8.0 14.5 0.13 0.33 0.33 94 1006.6
20260509064531 8 360 8.0 14.5 0.13 0.33 0.33 94 1006.5
20260509064030 8 360 9.7 14.5 0.13 0.33 0.33 94 1006.6
20260509063032 8 360 8.0 14.5 0.13 0.33 0.33 94 1006.8
20260509062529 8 360 9.7 16.1 0.13 0.33 0.33 94 1006.9
20260509062029 8 148 6.4 16.1 0.13 0.33 0.33 94 1006.9
20260509061529 8 146 8.0 14.5 0.10 0.30 0.30 94 1007.0
20260509061030 8 360 8.0 16.1 0.10 0.30 0.30 94 1007.0
20260509060526 8 360 9.7 19.3 0.05 0.25 0.25 94 1007.2
20260509060027 8 360 6.4 19.3 0.05 0.23 0.23 94 1007.2
20260509055527 8 360 6.4 14.5 0.05 0.23 0.23 94 1007.2
20260509055025 8 360 8.0 14.5 0.05 0.23 0.23 94 1007.5
20260509054527 8 360 8.0 12.9 0.03 0.20 0.20 94 1007.5
20260509054024 8 360 8.0 16.1 0.03 0.20 0.20 94 1007.5
20260509053033 8 360 9.7 16.1 0.03 0.20 0.20 94 1007.6
20260509052523 8 360 9.7 19.3 0.03 0.20 0.20 94 1007.8
20260509052024 8 360 9.7 19.3 0.03 0.20 0.20 94 1007.9
20260509051522 8 360 11.3 19.3 0.03 0.20 0.20 94 1008.0
20260509051022 8 360 12.9 19.3 0.03 0.20 0.20 94 1008.0
20260509050523 8 360 9.7 17.7 0.03 0.20 0.20 94 1008.1
20260509050022 8 146 9.7 17.7 0.00 0.18 0.18 94 1008.1
20260509045528 8 360 11.3 19.3 0.00 0.18 0.18 94 1008.1